Showing default

OV2-1, 1641

Orbit data source: Space-Track

OV2-1, 1641 is a payload satellite owned by USAF SSD (US) in LEO that was launched on Fri, 15 Oct 1965 UTC via a TITAN IIIC launch vehicle from the Air Force Eastern Test Range (AFETR). Payload-class satellites include a variety of spacecraft equipped with specific instruments for various scientific and technological missions. These include communications satellites like Starlink; space stations such as the ISS; scientific satellites like the Hubble; Earth observation satellites from companies like Planet Labs, Umbra, and HawkEye 360; GPS; miniature CubeSats for education and research; and military/defense satellites.

Loading next visibility...
Identifier
1641, 1965-082C
Orbit
LEO
Country
Flag of USUS
Related business
Manufacturer
Northrop
Mission
Non-operational spacecraft
Bus & Motor
OV2, Unknown motor
Mass
170 kg wet, 170 kg dry
Launch date (UTC)
1965-10-15 (60 years ago)
Launch vehicle
TITAN IIIC
Launch site
Air Force Eastern Test Range (AFETR)
Object type
Payload
Rocket body
Debris
Shape & HBR
Unknown
Radar Cross Section
Medium (>0.1 m² and <1 m²)

Expand to show TLE details & history
Last TLE update: 21 hours ago

TLE from 21 hours ago
0 OV2-1
1 01641U 65082C   26033.40791306  .00000363  00000-0  76005-4 0  9991
2 01641  32.2966 289.0152 0018224  88.7253 271.5481 14.54743835197659
Epoch: 2026-02-02T09:47Z
TLE epoch observation values (Epoch: 2026-02-02T09:47:23.688Z)
Latitude
0.00002°
Longitude
9.5629°
Altitude
708.542 km
Speed
7.504 km/s
True Right ascension
19h 16m 03s
True Declination
0° 00' 00"
Sunlit
Object was in daylight at epoch
Visualization orbit readout
Latitude
Unknown
Longitude
Unknown
Altitude
Unknown
Speed
Unknown
Apparent Right ascension
Unknown
Apparent Declination
Unknown
Sunlit
N/A
Visualization observer readout
Local Sidereal Time
08:23:31
Azimuth
Unknown
Elevation
Unknown
Doppler factor
Unknown
Orbital elements
Apogee altitude
726.679 km
Perigee altitude
700.831 km
Semi-major axis
7,091.892 km
Eccentricity
0.00182
Inclination
32.2966°
RAAN
289.0152°
Arg. of periapsis
88.7253°
True anomaly
271.33933°
Mean anomaly
271.5481°
Eccentric anomaly
271.44372°
Mean motion
3.63413 °/min
Orbital period
99.06 mins
BSTAR
0.000076005

Documentation

Showing up to 5 results
|